Time,TemperatureF,DewpointF,PressureIn,WindDirection,WindDirectionDegrees,WindSpeedMPH,WindSpeedGustMPH,Humidity,HourlyPrecipIn,Conditions,Clouds,dailyrainin,SolarRadiationWatts/m^2,SoftwareType,DateUTC
2013-10-27 00:00:00,60.3,57.4,29.66,South,188,7.0,14.0,90,0.00,CLR,,0.00,0.0,WeatherDisplay:10.37,2013-10-26 22:00:00,
2013-10-27 00:11:00,60.5,57.2,29.66,SSW,197,8.0,14.0,89,0.00,CLR,,0.00,0.0,WeatherDisplay:10.37,2013-10-26 22:11:00,
2013-10-27 00:21:00,60.6,57.0,29.65,SSW,207,7.0,17.0,88,0.00,CLR,,0.00,0.0,WeatherDisplay:10.37,2013-10-26 22:21:00,
2013-10-27 00:31:00,60.6,56.7,29.64,SSW,199,6.0,14.0,87,0.00,CLR,,0.00,0.0,WeatherDisplay:10.37,2013-10-26 22:31:00,
2013-10-27 00:41:00,61.0,57.1,29.64,SSW,205,8.0,18.0,87,0.00,CLR,,0.00,0.0,WeatherDisplay:10.37,2013-10-26 22:41:00,
2013-10-27 00:51:00,61.0,56.8,29.64,SSW,192,8.0,18.0,86,0.00,CLR,,0.00,0.0,WeatherDisplay:10.37,2013-10-26 22:51:00,
2013-10-27 01:00:00,61.0,56.8,29.64,SSW,205,9.0,18.0,86,0.00,CLR,,0.00,0.0,WeatherDisplay:10.37,2013-10-26 23:00:00,
2013-10-27 01:05:00,61.0,56.8,29.63,SSW,198,9.0,20.0,86,0.00,CLR,,0.00,0.0,WeatherDisplay:10.37,2013-10-26 23:05:00,
2013-10-27 01:11:00,60.8,56.6,29.63,SSW,194,9.0,20.0,86,0.00,CLR,,0.00,0.0,WeatherDisplay:10.37,2013-10-26 23:11:00,
2013-10-27 01:21:00,60.5,56.3,29.63,SSW,192,10.0,20.0,86,0.00,CLR,,0.00,0.0,WeatherDisplay:10.37,2013-10-26 23:21:00,
2013-10-27 01:31:00,60.3,56.1,29.63,SSW,198,10.0,18.0,86,0.00,CLR,,0.00,0.0,WeatherDisplay:10.37,2013-10-26 23:31:00,
2013-10-27 01:41:00,60.2,56.0,29.63,SSW,201,12.0,20.0,86,0.00,CLR,,0.00,0.0,WeatherDisplay:10.37,2013-10-26 23:41:00,
2013-10-27 01:51:00,60.2,56.0,29.62,SSW,205,10.0,16.0,86,0.00,CLR,,0.00,0.0,WeatherDisplay:10.37,2013-10-26 23:51:00,
2013-10-27 02:00:00,60.0,55.8,29.62,SSW,211,9.0,15.0,86,0.00,CLR,,0.00,0.0,WeatherDisplay:10.37,2013-10-27 00:00:00,
2013-10-27 02:05:00,59.9,55.4,29.61,SSW,210,7.0,16.0,85,0.00,CLR,,0.00,0.0,WeatherDisplay:10.37,2013-10-27 00:05:00,
2013-10-27 02:11:00,59.9,55.4,29.61,SSW,205,6.0,16.0,85,0.00,CLR,,0.00,0.0,WeatherDisplay:10.37,2013-10-27 00:11:00,
2013-10-27 02:21:00,59.7,55.2,29.61,SSW,200,6.0,15.0,85,0.00,CLR,,0.00,0.0,WeatherDisplay:10.37,2013-10-27 00:21:00,
2013-10-27 02:31:00,59.7,55.2,29.60,SSW,201,7.0,14.0,85,0.00,CLR,,0.00,0.0,WeatherDisplay:10.37,2013-10-27 00:31:00,
2013-10-27 02:41:00,59.7,55.2,29.61,SW,214,10.0,18.0,85,0.00,CLR,,0.00,0.0,WeatherDisplay:10.37,2013-10-27 00:41:00,
2013-10-27 02:51:00,59.7,55.2,29.60,SSW,206,9.0,22.0,85,0.00,CLR,,0.00,0.0,WeatherDisplay:10.37,2013-10-27 00:51:00,
2013-10-27 02:00:00,59.9,55.1,29.60,SSW,202,8.0,20.0,84,0.00,CLR,,0.00,0.0,WeatherDisplay:10.37,2013-10-27 01:00:00,
2013-10-27 02:05:00,59.9,54.7,29.60,SSW,207,9.0,20.0,83,0.00,CLR,,0.00,0.0,WeatherDisplay:10.37,2013-10-27 01:05:00,
2013-10-27 02:11:00,59.9,54.7,29.60,SW,220,8.0,18.0,83,0.00,CLR,,0.00,0.0,WeatherDisplay:10.37,2013-10-27 01:11:00,
2013-10-27 02:21:00,59.9,54.7,29.60,SSW,205,9.0,20.0,83,0.00,CLR,,0.00,0.0,WeatherDisplay:10.37,2013-10-27 01:21:00,
2013-10-27 02:31:00,59.7,54.5,29.60,SSW,195,10.0,20.0,83,0.00,CLR,,0.00,0.0,WeatherDisplay:10.37,2013-10-27 01:31:00,
2013-10-27 02:41:00,59.4,54.6,29.59,South,183,12.0,21.0,84,0.00,CLR,,0.00,0.0,WeatherDisplay:10.37,2013-10-27 01:41:00,
2013-10-27 02:51:00,59.3,54.5,29.59,South,187,9.0,18.0,84,0.00,CLR,,0.00,0.0,WeatherDisplay:10.37,2013-10-27 01:51:00,
2013-10-27 03:00:00,59.0,54.5,29.58,SSW,195,8.0,17.0,85,0.00,CLR,,0.00,0.0,WeatherDisplay:10.37,2013-10-27 02:00:00,
2013-10-27 03:05:00,58.8,54.3,29.58,South,191,12.0,17.0,85,0.00,CLR,,0.00,0.0,WeatherDisplay:10.37,2013-10-27 02:05:00,
2013-10-27 03:11:00,58.8,54.3,29.58,SSW,192,10.0,21.0,85,0.00,CLR,,0.00,0.0,WeatherDisplay:10.37,2013-10-27 02:11:00,
2013-10-27 03:21:00,58.7,54.2,29.58,South,182,12.0,18.0,85,0.00,CLR,,0.00,0.0,WeatherDisplay:10.37,2013-10-27 02:21:00,
2013-10-27 03:31:00,58.5,54.0,29.57,South,189,10.0,20.0,85,0.00,CLR,,0.00,0.0,WeatherDisplay:10.37,2013-10-27 02:31:00,
2013-10-27 03:41:00,58.5,54.0,29.57,SSW,208,9.0,20.0,85,0.00,CLR,,0.00,0.0,WeatherDisplay:10.37,2013-10-27 02:41:00,
2013-10-27 03:51:00,58.5,54.0,29.57,SSW,204,8.0,18.0,85,0.00,CLR,,0.00,0.0,WeatherDisplay:10.37,2013-10-27 02:51:00,
2013-10-27 04:00:00,58.5,54.0,29.56,SSW,201,10.0,23.0,85,0.00,CLR,,0.00,0.0,WeatherDisplay:10.37,2013-10-27 03:00:00,
2013-10-27 04:05:00,58.5,54.0,29.55,SSW,199,12.0,22.0,85,0.00,CLR,,0.00,0.0,WeatherDisplay:10.37,2013-10-27 03:05:00,
2013-10-27 04:11:00,58.5,54.0,29.55,SSW,199,10.0,21.0,85,0.00,CLR,,0.00,0.0,WeatherDisplay:10.37,2013-10-27 03:11:00,
2013-10-27 04:21:00,58.7,54.2,29.55,SSW,211,13.0,29.0,85,0.00,CLR,,0.00,0.0,WeatherDisplay:10.37,2013-10-27 03:21:00,
2013-10-27 04:31:00,58.8,54.0,29.54,SSW,201,12.0,20.0,84,0.00,CLR,,0.00,0.0,WeatherDisplay:10.37,2013-10-27 03:31:00,
2013-10-27 04:41:00,58.9,54.1,29.54,SSW,202,13.0,21.0,84,0.00,CLR,,0.00,0.0,WeatherDisplay:10.37,2013-10-27 03:41:00,
2013-10-27 04:51:00,59.0,53.8,29.53,SSW,195,10.0,23.0,83,0.00,CLR,,0.00,0.0,WeatherDisplay:10.37,2013-10-27 03:51:00,
2013-10-27 05:00:00,59.0,53.8,29.52,SSW,199,12.0,21.0,83,0.00,CLR,,0.00,0.0,WeatherDisplay:10.37,2013-10-27 04:00:00,
2013-10-27 05:05:00,59.1,53.9,29.52,SSW,209,10.0,24.0,83,0.00,CLR,,0.00,0.0,WeatherDisplay:10.37,2013-10-27 04:05:00,
2013-10-27 05:11:00,59.1,53.6,29.52,SSW,202,10.0,27.0,82,0.00,CLR,,0.00,0.0,WeatherDisplay:10.37,2013-10-27 04:11:00,
2013-10-27 05:21:00,59.3,53.8,29.51,South,188,12.0,21.0,82,0.00,CLR,,0.00,0.0,WeatherDisplay:10.37,2013-10-27 04:21:00,
2013-10-27 05:25:00,59.3,53.8,29.50,SSW,201,10.0,20.0,82,0.00,CLR,,0.00,0.0,WeatherDisplay:10.37,2013-10-27 04:25:00,
2013-10-27 05:31:00,59.4,53.9,29.50,SSW,205,13.0,28.0,82,0.00,CLR,,0.00,0.0,WeatherDisplay:10.37,2013-10-27 04:31:00,
2013-10-27 05:41:00,59.6,53.8,29.50,SSW,194,8.0,18.0,81,0.00,CLR,,0.00,0.0,WeatherDisplay:10.37,2013-10-27 04:41:00,
2013-10-27 05:51:00,59.6,54.1,29.49,SSW,207,13.0,24.0,82,0.00,CLR,,0.00,0.0,WeatherDisplay:10.37,2013-10-27 04:51:00,
2013-10-27 06:00:00,59.0,54.5,29.49,SSW,192,13.0,23.0,85,0.00,CLR,,0.00,0.0,WeatherDisplay:10.37,2013-10-27 05:00:00,
2013-10-27 06:05:00,58.7,54.5,29.48,SSW,209,10.0,20.0,86,0.00,CLR,,0.00,0.0,WeatherDisplay:10.37,2013-10-27 05:05:00,
2013-10-27 06:11:00,58.5,54.6,29.48,SSW,206,10.0,20.0,87,0.01,RA,,0.01,0.0,WeatherDisplay:10.37,2013-10-27 05:11:00,
2013-10-27 06:21:00,58.2,54.3,29.47,South,191,7.0,23.0,87,0.00,,,0.01,0.0,WeatherDisplay:10.37,2013-10-27 05:21:00,
2013-10-27 06:31:00,58.4,54.2,29.46,SSW,195,9.0,20.0,86,0.00,,,0.01,0.0,WeatherDisplay:10.37,2013-10-27 05:31:00,
2013-10-27 06:41:00,58.7,54.2,29.46,South,188,9.0,23.0,85,0.00,,,0.01,0.0,WeatherDisplay:10.37,2013-10-27 05:41:00,
2013-10-27 06:51:00,59.0,54.2,29.45,SSW,197,13.0,22.0,84,0.00,,,0.01,0.0,WeatherDisplay:10.37,2013-10-27 05:51:00,
2013-10-27 07:00:00,59.1,53.9,29.44,SSW,205,12.0,23.0,83,0.00,OVC,,0.01,0.0,WeatherDisplay:10.37,2013-10-27 06:00:00,
2013-10-27 07:05:00,59.1,54.3,29.44,SSW,197,17.0,25.0,84,0.00,OVC,,0.01,0.0,WeatherDisplay:10.37,2013-10-27 06:05:00,
2013-10-27 07:11:00,59.0,54.5,29.44,South,187,10.0,25.0,85,0.01,RA,,0.02,0.0,WeatherDisplay:10.37,2013-10-27 06:11:00,
2013-10-27 07:21:00,58.4,54.9,29.44,SSW,193,10.0,20.0,88,0.02,RA,,0.04,0.0,WeatherDisplay:10.37,2013-10-27 06:21:00,
2013-10-27 07:31:00,57.7,54.8,29.44,South,188,12.0,24.0,90,0.02,RA,,0.06,0.0,WeatherDisplay:10.37,2013-10-27 06:31:00,
2013-10-27 07:41:00,57.3,55.0,29.44,SSW,205,13.0,20.0,92,0.02,RA,,0.11,0.0,WeatherDisplay:10.37,2013-10-27 06:41:00,
2013-10-27 07:51:00,57.0,55.3,29.43,SSW,199,12.0,20.0,94,0.01,RA,,0.13,6.3,WeatherDisplay:10.37,2013-10-27 06:51:00,
2013-10-27 08:00:00,56.8,55.4,29.43,South,189,12.0,25.0,95,0.02,RA,,0.15,8.8,WeatherDisplay:10.37,2013-10-27 07:00:00,
2013-10-27 08:05:00,56.8,55.4,29.43,SSW,202,13.0,25.0,95,0.02,RA,,0.17,11.3,WeatherDisplay:10.37,2013-10-27 07:05:00,
2013-10-27 08:11:00,56.8,55.4,29.43,SSW,192,15.0,22.0,95,0.01,RA,,0.17,13.8,WeatherDisplay:10.37,2013-10-27 07:11:00,
2013-10-27 08:21:00,56.8,55.7,29.43,South,186,10.0,22.0,96,0.00,BKN,,0.17,37.5,WeatherDisplay:10.37,2013-10-27 07:21:00,
2013-10-27 08:31:00,57.0,55.9,29.43,SSW,198,13.0,23.0,96,0.00,OVC,,0.17,17.5,WeatherDisplay:10.37,2013-10-27 07:31:00,
2013-10-27 08:41:00,57.0,55.9,29.41,SSW,203,8.0,23.0,96,0.00,RA,,0.20,6.3,WeatherDisplay:10.37,2013-10-27 07:41:00,
2013-10-27 08:51:00,57.1,56.0,29.42,SSW,201,12.0,23.0,96,0.00,RA,,0.21,17.5,WeatherDisplay:10.37,2013-10-27 07:51:00,
2013-10-27 09:00:00,57.1,56.0,29.42,SSW,212,14.0,26.0,96,0.00,OVC,,0.21,23.8,WeatherDisplay:10.37,2013-10-27 08:00:00,
2013-10-27 09:11:00,57.3,56.2,29.41,SSW,203,15.0,25.0,96,0.00,OVC,,0.21,43.8,WeatherDisplay:10.37,2013-10-27 08:11:00,
2013-10-27 09:21:00,57.3,56.2,29.41,SSW,207,12.0,24.0,96,0.00,SCT,,0.21,116.3,WeatherDisplay:10.37,2013-10-27 08:21:00,
2013-10-27 09:31:00,57.4,56.0,29.42,SW,219,14.0,25.0,95,0.00,SCT,,0.21,131.3,WeatherDisplay:10.37,2013-10-27 08:31:00,
2013-10-27 09:41:00,57.6,55.9,29.42,SW,235,15.0,26.0,94,0.00,BKN,,0.21,101.3,WeatherDisplay:10.37,2013-10-27 08:41:00,
2013-10-27 09:51:00,57.7,55.4,29.42,SW,223,15.0,24.0,92,0.00,FEW,,0.21,168.8,WeatherDisplay:10.37,2013-10-27 08:51:00,
2013-10-27 10:00:00,58.1,55.2,29.43,SW,220,14.0,30.0,90,0.00,FEW,,0.21,180.0,WeatherDisplay:10.37,2013-10-27 09:00:00,
2013-10-27 10:05:00,58.2,55.0,29.43,SSW,211,14.0,23.0,89,0.00,OVC,,0.21,81.3,WeatherDisplay:10.37,2013-10-27 09:05:00,
2013-10-27 10:11:00,58.2,54.3,29.43,SSW,207,17.0,27.0,87,0.00,BKN,,0.21,130.0,WeatherDisplay:10.37,2013-10-27 09:11:00,
2013-10-27 10:25:00,57.9,53.7,29.43,SW,227,14.0,24.0,86,0.00,BKN,,0.21,118.8,WeatherDisplay:10.37,2013-10-27 09:25:00,
2013-10-27 10:31:00,57.9,53.4,29.43,SW,234,14.0,28.0,85,0.00,SCT,,0.21,165.0,WeatherDisplay:10.37,2013-10-27 09:31:00,
2013-10-27 10:41:00,57.9,53.1,29.43,SSW,206,16.0,31.0,84,0.00,OVC,,0.21,70.0,WeatherDisplay:10.37,2013-10-27 09:41:00,
2013-10-27 10:51:00,57.9,53.1,29.43,SW,233,15.0,27.0,84,0.00,OVC,,0.21,67.5,WeatherDisplay:10.37,2013-10-27 09:51:00,
2013-10-27 11:00:00,56.9,52.7,29.45,SW,226,17.0,33.0,86,0.02,RA,,0.24,58.8,WeatherDisplay:10.37,2013-10-27 10:00:00,
2013-10-27 11:05:00,56.1,52.3,29.45,WSW,242,13.0,26.0,87,0.01,RA,,0.24,105.0,WeatherDisplay:10.37,2013-10-27 10:05:00,
2013-10-27 11:11:00,55.7,52.5,29.45,SW,230,12.0,24.0,89,0.00,RA,,0.24,443.8,WeatherDisplay:10.37,2013-10-27 10:11:00,
2013-10-27 11:21:00,56.0,52.8,29.45,WSW,256,13.0,30.0,89,0.00,CLR,,0.24,481.3,WeatherDisplay:10.37,2013-10-27 10:21:00,
2013-10-27 11:31:00,56.9,53.0,29.46,WSW,244,17.0,31.0,87,0.00,CLR,,0.24,478.8,WeatherDisplay:10.37,2013-10-27 10:31:00,
2013-10-27 11:41:00,57.4,52.6,29.46,WSW,242,17.0,31.0,84,0.00,CLR,,0.24,481.3,WeatherDisplay:10.37,2013-10-27 10:41:00,
2013-10-27 11:51:00,58.1,51.6,29.47,WSW,243,17.0,31.0,79,0.00,CLR,,0.24,513.8,WeatherDisplay:10.37,2013-10-27 10:51:00,
2013-10-27 12:00:00,58.5,51.7,29.47,WSW,251,18.0,30.0,78,0.00,CLR,,0.24,498.8,WeatherDisplay:10.37,2013-10-27 11:00:00,
2013-10-27 12:11:00,58.5,52.0,29.47,SW,231,8.0,22.0,79,0.00,CLR,,0.24,325.0,WeatherDisplay:10.37,2013-10-27 11:11:00,
2013-10-27 12:21:00,58.5,52.4,29.47,WSW,238,10.0,25.0,80,0.00,BKN,,0.24,168.8,WeatherDisplay:10.37,2013-10-27 11:21:00,
2013-10-27 12:31:00,58.4,52.9,29.47,SW,235,14.0,32.0,82,0.00,SCT,,0.24,182.5,WeatherDisplay:10.37,2013-10-27 11:31:00,
2013-10-27 12:41:00,57.7,53.2,29.47,WSW,245,14.0,21.0,85,0.00,OVC,,0.24,61.3,WeatherDisplay:10.37,2013-10-27 11:41:00,
2013-10-27 12:51:00,56.8,52.9,29.47,WSW,241,9.0,25.0,87,0.00,RA,,0.25,522.5,WeatherDisplay:10.37,2013-10-27 11:51:00,
2013-10-27 13:00:00,57.0,53.5,29.47,SW,222,10.0,21.0,88,0.00,CLR,,0.25,450.0,WeatherDisplay:10.37,2013-10-27 12:00:00,
2013-10-27 13:05:00,57.4,53.6,29.47,WSW,238,9.0,20.0,87,0.00,CLR,,0.25,521.3,WeatherDisplay:10.37,2013-10-27 12:05:00,
2013-10-27 13:11:00,57.9,53.1,29.47,WSW,248,14.0,24.0,84,0.00,BKN,,0.25,127.5,WeatherDisplay:10.37,2013-10-27 12:11:00,
2013-10-27 13:21:00,58.2,52.1,29.47,WSW,240,12.0,22.0,80,0.00,CLR,,0.25,391.3,WeatherDisplay:10.37,2013-10-27 12:21:00,
2013-10-27 13:31:00,58.4,51.9,29.47,SW,224,10.0,25.0,79,0.00,BKN,,0.25,160.0,WeatherDisplay:10.37,2013-10-27 12:31:00,
2013-10-27 13:41:00,58.1,52.3,29.48,SW,225,14.0,23.0,81,0.02,RA,,0.28,131.3,WeatherDisplay:10.37,2013-10-27 12:41:00,
2013-10-27 13:51:00,57.1,53.0,29.48,SW,236,13.0,28.0,86,0.00,SCT,,0.28,217.5,WeatherDisplay:10.37,2013-10-27 12:51:00,
2013-10-27 14:00:00,56.6,52.8,29.48,SW,224,13.0,28.0,87,0.00,BKN,,0.28,141.3,WeatherDisplay:10.37,2013-10-27 13:00:00,
2013-10-27 14:05:00,56.4,52.3,29.47,SW,231,9.0,27.0,86,0.00,CLR,,0.28,348.8,WeatherDisplay:10.37,2013-10-27 13:05:00,
2013-10-27 14:11:00,56.4,51.6,29.47,SW,217,14.0,22.0,84,0.00,SCT,,0.28,186.3,WeatherDisplay:10.37,2013-10-27 13:11:00,
2013-10-27 14:21:00,56.4,50.3,29.49,SW,214,13.0,24.0,80,0.00,SCT,,0.28,165.0,WeatherDisplay:10.37,2013-10-27 13:21:00,
2013-10-27 14:31:00,56.8,50.4,29.49,WSW,237,14.0,23.0,79,0.00,CLR,,0.28,347.5,WeatherDisplay:10.37,2013-10-27 13:31:00,
2013-10-27 14:41:00,57.4,50.9,29.49,SW,231,10.0,23.0,79,0.00,CLR,,0.28,310.0,WeatherDisplay:10.37,2013-10-27 13:41:00,
2013-10-27 14:51:00,57.7,51.2,29.50,WSW,252,13.0,22.0,79,0.00,CLR,,0.28,290.0,WeatherDisplay:10.37,2013-10-27 13:51:00,
2013-10-27 15:00:00,58.1,51.3,29.50,SW,228,10.0,26.0,78,0.00,CLR,,0.28,272.5,WeatherDisplay:10.37,2013-10-27 14:00:00,
2013-10-27 15:05:00,58.2,51.4,29.50,SW,214,13.0,20.0,78,0.00,CLR,,0.28,250.0,WeatherDisplay:10.37,2013-10-27 14:05:00,
2013-10-27 15:11:00,58.2,51.4,29.50,SW,225,14.0,25.0,78,0.00,BKN,,0.28,78.8,WeatherDisplay:10.37,2013-10-27 14:11:00,
2013-10-27 15:21:00,58.2,51.4,29.50,SW,227,14.0,29.0,78,0.00,CLR,,0.28,165.0,WeatherDisplay:10.37,2013-10-27 14:21:00,
2013-10-27 15:31:00,58.4,51.9,29.50,SW,214,14.0,24.0,79,0.00,SCT,,0.28,116.3,WeatherDisplay:10.37,2013-10-27 14:31:00,
2013-10-27 15:41:00,58.4,51.9,29.50,SW,225,14.0,27.0,79,0.00,FEW,,0.28,112.5,WeatherDisplay:10.37,2013-10-27 14:41:00,
2013-10-27 15:51:00,58.2,52.1,29.50,SW,225,13.0,27.0,80,0.00,CLR,,0.28,133.8,WeatherDisplay:10.37,2013-10-27 14:51:00,
2013-10-27 16:00:00,58.1,52.0,29.49,SW,230,13.0,24.0,80,0.00,FEW,,0.28,98.8,WeatherDisplay:10.37,2013-10-27 15:00:00,
2013-10-27 16:05:00,57.9,51.8,29.49,SW,235,14.0,25.0,80,0.00,SCT,,0.28,70.0,WeatherDisplay:10.37,2013-10-27 15:05:00,
2013-10-27 16:11:00,57.9,51.8,29.49,WSW,238,10.0,25.0,80,0.00,SCT,,0.28,61.3,WeatherDisplay:10.37,2013-10-27 15:11:00,
2013-10-27 16:21:00,57.7,51.9,29.50,SW,214,9.0,20.0,81,0.00,CLR,,0.28,77.5,WeatherDisplay:10.37,2013-10-27 15:21:00,
2013-10-27 16:31:00,57.7,52.2,29.50,SW,221,13.0,23.0,82,0.00,CLR,,0.28,72.5,WeatherDisplay:10.37,2013-10-27 15:31:00,
2013-10-27 16:41:00,57.7,51.6,29.50,SW,218,16.0,24.0,80,0.00,SCT,,0.28,28.8,WeatherDisplay:10.37,2013-10-27 15:41:00,
2013-10-27 16:51:00,57.7,51.9,29.50,SW,226,12.0,20.0,81,0.00,FEW,,0.28,31.3,WeatherDisplay:10.37,2013-10-27 15:51:00,
2013-10-27 17:00:00,57.7,51.9,29.50,SW,218,13.0,25.0,81,0.00,SCT,,0.28,11.3,WeatherDisplay:10.37,2013-10-27 16:00:00,
2013-10-27 17:05:00,57.7,51.9,29.50,SW,215,13.0,20.0,81,0.00,SCT,,0.28,8.8,WeatherDisplay:10.37,2013-10-27 16:05:00,
2013-10-27 17:11:00,57.6,51.8,29.50,SW,226,13.0,24.0,81,0.00,OVC,,0.28,0.0,WeatherDisplay:10.37,2013-10-27 16:11:00,
2013-10-27 17:21:00,57.6,52.5,29.50,SW,218,10.0,15.0,83,0.00,OVC,,0.28,0.0,WeatherDisplay:10.37,2013-10-27 16:21:00,
2013-10-27 17:31:00,57.3,52.5,29.51,SW,234,9.0,20.0,84,0.00,OVC,,0.28,0.0,WeatherDisplay:10.37,2013-10-27 16:31:00,
2013-10-27 17:41:00,57.1,52.3,29.51,SW,236,5.0,18.0,84,0.00,OVC,,0.28,0.0,WeatherDisplay:10.37,2013-10-27 16:41:00,
2013-10-27 17:51:00,57.0,52.2,29.51,SW,235,9.0,20.0,84,0.00,OVC,,0.28,0.0,WeatherDisplay:10.37,2013-10-27 16:51:00,
2013-10-27 18:00:00,57.1,52.0,29.51,SW,222,14.0,20.0,83,0.00,CLR,,0.28,0.0,WeatherDisplay:10.37,2013-10-27 17:00:00,
2013-10-27 18:05:00,57.3,52.2,29.50,SW,214,12.0,22.0,83,0.00,CLR,,0.28,0.0,WeatherDisplay:10.37,2013-10-27 17:05:00,
2013-10-27 18:11:00,57.3,52.2,29.51,SW,229,6.0,21.0,83,0.00,CLR,,0.28,0.0,WeatherDisplay:10.37,2013-10-27 17:11:00,
2013-10-27 18:21:00,57.3,52.8,29.51,SSW,213,10.0,21.0,85,0.02,RA,,0.29,0.0,WeatherDisplay:10.37,2013-10-27 17:21:00,
2013-10-27 18:31:00,56.6,53.1,29.52,SW,214,8.0,28.0,88,0.00,RA,,0.30,0.0,WeatherDisplay:10.37,2013-10-27 17:31:00,
2013-10-27 18:41:00,56.4,52.9,29.52,SW,231,8.0,22.0,88,0.00,,,0.30,0.0,WeatherDisplay:10.37,2013-10-27 17:41:00,
2013-10-27 18:51:00,56.4,52.6,29.51,SW,223,8.0,20.0,87,0.00,,,0.30,0.0,WeatherDisplay:10.37,2013-10-27 17:51:00,
2013-10-27 19:00:00,56.4,52.6,29.51,SSW,210,9.0,21.0,87,0.00,,,0.30,0.0,WeatherDisplay:10.37,2013-10-27 18:00:00,
2013-10-27 19:11:00,56.7,52.6,29.52,SW,216,13.0,24.0,86,0.00,,,0.30,0.0,WeatherDisplay:10.37,2013-10-27 18:11:00,
2013-10-27 19:21:00,56.8,52.3,29.51,SW,221,10.0,22.0,85,0.00,,,0.30,0.0,WeatherDisplay:10.37,2013-10-27 18:21:00,
2013-10-27 19:31:00,57.0,52.2,29.51,SW,224,14.0,21.0,84,0.00,CLR,,0.30,0.0,WeatherDisplay:10.37,2013-10-27 18:31:00,
2013-10-27 19:41:00,57.1,52.0,29.52,SSW,208,15.0,26.0,83,0.00,CLR,,0.30,0.0,WeatherDisplay:10.37,2013-10-27 18:41:00,
2013-10-27 19:51:00,57.1,52.0,29.52,SW,219,12.0,23.0,83,0.00,CLR,,0.30,0.0,WeatherDisplay:10.37,2013-10-27 18:51:00,
2013-10-27 20:00:00,57.1,52.0,29.51,SW,231,13.0,28.0,83,0.00,CLR,,0.30,0.0,WeatherDisplay:10.37,2013-10-27 19:00:00,
2013-10-27 20:05:00,57.1,52.0,29.52,SW,233,15.0,29.0,83,0.00,CLR,,0.30,0.0,WeatherDisplay:10.37,2013-10-27 19:05:00,
2013-10-27 20:11:00,57.3,52.2,29.52,WSW,239,14.0,29.0,83,0.00,CLR,,0.30,0.0,WeatherDisplay:10.37,2013-10-27 19:11:00,
2013-10-27 20:21:00,57.3,51.9,29.52,SW,214,17.0,30.0,82,0.00,CLR,,0.30,0.0,WeatherDisplay:10.37,2013-10-27 19:21:00,
2013-10-27 20:31:00,57.4,51.6,29.52,SW,223,13.0,25.0,81,0.00,CLR,,0.30,0.0,WeatherDisplay:10.37,2013-10-27 19:31:00,
2013-10-27 20:41:00,57.4,51.3,29.52,SW,221,14.0,33.0,80,0.00,CLR,,0.30,0.0,WeatherDisplay:10.37,2013-10-27 19:41:00,
2013-10-27 20:51:00,57.6,51.1,29.52,SW,215,14.0,24.0,79,0.00,CLR,,0.30,0.0,WeatherDisplay:10.37,2013-10-27 19:51:00,
2013-10-27 21:00:00,57.4,50.9,29.51,SW,235,8.0,23.0,79,0.00,CLR,,0.30,0.0,WeatherDisplay:10.37,2013-10-27 20:00:00,
2013-10-27 21:11:00,57.3,50.5,29.51,SW,217,15.0,32.0,78,0.00,CLR,,0.30,0.0,WeatherDisplay:10.37,2013-10-27 20:11:00,
2013-10-27 21:21:00,57.4,50.6,29.52,SW,223,9.0,21.0,78,0.00,CLR,,0.30,0.0,WeatherDisplay:10.37,2013-10-27 20:21:00,
2013-10-27 21:31:00,57.4,50.6,29.52,SSW,213,16.0,29.0,78,0.00,CLR,,0.30,0.0,WeatherDisplay:10.37,2013-10-27 20:31:00,
2013-10-27 21:41:00,57.4,50.9,29.52,SW,219,15.0,27.0,79,0.00,CLR,,0.30,0.0,WeatherDisplay:10.37,2013-10-27 20:41:00,
2013-10-27 21:51:00,57.3,50.8,29.51,SSW,209,14.0,25.0,79,0.00,CLR,,0.30,0.0,WeatherDisplay:10.37,2013-10-27 20:51:00,
2013-10-27 22:00:00,57.3,50.8,29.52,SW,226,10.0,23.0,79,0.00,CLR,,0.30,0.0,WeatherDisplay:10.37,2013-10-27 21:00:00,
2013-10-27 22:05:00,57.3,50.8,29.52,SW,224,10.0,23.0,79,0.00,CLR,,0.30,0.0,WeatherDisplay:10.37,2013-10-27 21:05:00,
2013-10-27 22:11:00,57.2,51.1,29.51,SW,226,14.0,23.0,80,0.00,CLR,,0.30,0.0,WeatherDisplay:10.37,2013-10-27 21:11:00,
2013-10-27 22:21:00,57.1,51.0,29.51,SW,217,13.0,24.0,80,0.00,CLR,,0.30,0.0,WeatherDisplay:10.37,2013-10-27 21:21:00,
2013-10-27 22:31:00,57.1,51.0,29.50,SSW,208,9.0,22.0,80,0.00,CLR,,0.30,0.0,WeatherDisplay:10.37,2013-10-27 21:31:00,
2013-10-27 22:41:00,57.2,50.8,29.51,SSW,209,13.0,23.0,79,0.00,CLR,,0.30,0.0,WeatherDisplay:10.37,2013-10-27 21:41:00,
2013-10-27 22:51:00,57.3,50.8,29.50,SSW,207,8.0,18.0,79,0.00,CLR,,0.30,0.0,WeatherDisplay:10.37,2013-10-27 21:51:00,
2013-10-27 23:00:00,57.3,51.2,29.50,SW,220,10.0,18.0,80,0.00,CLR,,0.30,0.0,WeatherDisplay:10.37,2013-10-27 22:00:00,
2013-10-27 23:05:00,57.3,51.2,29.50,SSW,209,12.0,20.0,80,0.00,CLR,,0.30,0.0,WeatherDisplay:10.37,2013-10-27 22:05:00,
2013-10-27 23:11:00,57.3,51.2,29.50,SW,218,12.0,24.0,80,0.00,CLR,,0.30,0.0,WeatherDisplay:10.37,2013-10-27 22:11:00,
2013-10-27 23:21:00,57.3,51.5,29.49,SSW,212,12.0,24.0,81,0.00,CLR,,0.30,0.0,WeatherDisplay:10.37,2013-10-27 22:21:00,
2013-10-27 23:31:00,57.3,51.9,29.49,SSW,203,15.0,23.0,82,0.00,CLR,,0.30,0.0,WeatherDisplay:10.37,2013-10-27 22:31:00,
2013-10-27 23:41:00,57.3,51.9,29.49,SW,219,13.0,22.0,82,0.00,CLR,,0.30,0.0,WeatherDisplay:10.37,2013-10-27 22:41:00,
2013-10-27 23:51:00,57.3,52.2,29.48,SW,225,14.0,24.0,83,0.00,CLR,,0.30,0.0,WeatherDisplay:10.37,2013-10-27 22:51:00,